| time (UTC) | temp F | wind direction | speed MPH | gust MPH | rain 1hr in | rain 24hr in | rain mn in | humidity % | barometer mb |
| 20260505192005 | 56 | 10 | 0.0 | 3.0 | 0.00 | 0.26 | 0.26 | 88 | 1009.0 |
| 20260505191505 | 56 | 6 | 0.0 | 6.0 | 0.00 | 0.26 | 0.26 | 88 | 1009.0 |
| 20260505191005 | 56 | 15 | 1.0 | 5.0 | 0.00 | 0.26 | 0.26 | 88 | 1008.9 |
| 20260505190505 | 56 | 22 | 0.0 | 2.0 | 0.00 | 0.26 | 0.26 | 88 | 1008.9 |
| 20260505190005 | 56 | 23 | 1.0 | 4.0 | 0.00 | 0.26 | 0.26 | 88 | 1008.9 |
| 20260505185506 | 56 | 15 | 1.0 | 4.0 | 0.00 | 0.26 | 0.26 | 88 | 1008.9 |
| 20260505185007 | 56 | 28 | 2.0 | 3.0 | 0.00 | 0.26 | 0.26 | 88 | 1008.9 |
| 20260505184506 | 57 | 31 | 0.0 | 3.0 | 0.00 | 0.26 | 0.26 | 87 | 1008.9 |
| 20260505184006 | 57 | 30 | 0.0 | 2.0 | 0.00 | 0.26 | 0.26 | 87 | 1008.9 |
| 20260505183506 | 57 | 16 | 0.0 | 2.0 | 0.00 | 0.26 | 0.26 | 87 | 1008.9 |
| 20260505183006 | 57 | 12 | 0.0 | 3.0 | 0.00 | 0.26 | 0.26 | 87 | 1008.8 |
| 20260505182505 | 57 | 13 | 1.0 | 3.0 | 0.00 | 0.26 | 0.26 | 87 | 1008.9 |
| 20260505182005 | 57 | 22 | 1.0 | 2.0 | 0.00 | 0.26 | 0.26 | 87 | 1008.9 |
| 20260505181505 | 57 | 22 | 0.0 | 3.0 | 0.00 | 0.26 | 0.26 | 87 | 1008.9 |
| 20260505181005 | 57 | 10 | 1.0 | 2.0 | 0.00 | 0.26 | 0.26 | 86 | 1008.9 |
| 20260505180505 | 57 | 9 | 0.0 | 3.0 | 0.00 | 0.26 | 0.26 | 87 | 1009.0 |
| 20260505180006 | 57 | 356 | 0.0 | 2.0 | 0.00 | 0.26 | 0.26 | 86 | 1008.9 |
| 20260505175505 | 57 | 63 | 2.0 | 4.0 | 0.00 | 0.26 | 0.26 | 86 | 1008.9 |
| 20260505175006 | 57 | 27 | 1.0 | 3.0 | 0.00 | 0.26 | 0.26 | 86 | 1008.9 |
| 20260505174505 | 57 | 49 | 1.0 | 3.0 | 0.00 | 0.26 | 0.26 | 86 | 1008.9 |
| 20260505174005 | 57 | 44 | 0.0 | 4.0 | 0.00 | 0.26 | 0.26 | 85 | 1009.0 |
| 20260505173505 | 57 | 43 | 0.0 | 4.0 | 0.00 | 0.26 | 0.26 | 85 | 1009.0 |
| 20260505173005 | 57 | 40 | 1.0 | 4.0 | 0.00 | 0.26 | 0.26 | 84 | 1009.1 |
| 20260505172505 | 57 | 38 | 0.0 | 0.0 | 0.00 | 0.26 | 0.26 | 84 | 1009.1 |
| 20260505172005 | 58 | 38 | 0.0 | 0.0 | 0.00 | 0.26 | 0.26 | 84 | 1009.1 |
| 20260505171506 | 58 | 12 | 0.0 | 2.0 | 0.00 | 0.26 | 0.26 | 83 | 1009.0 |
| 20260505171005 | 58 | 9 | 0.0 | 0.0 | 0.00 | 0.26 | 0.26 | 83 | 1009.0 |
| 20260505170505 | 58 | 12 | 0.0 | 1.0 | 0.00 | 0.26 | 0.26 | 83 | 1009.1 |
| 20260505170006 | 58 | 13 | 0.0 | 0.0 | 0.00 | 0.26 | 0.26 | 82 | 1009.1 |
| 20260505165506 | 58 | 16 | 0.0 | 0.0 | 0.00 | 0.26 | 0.26 | 82 | 1009.1 |
| 20260505165007 | 58 | 15 | 0.0 | 0.0 | 0.00 | 0.26 | 0.26 | 82 | 1009.1 |
| 20260505164506 | 58 | 21 | 0.0 | 1.0 | 0.00 | 0.26 | 0.26 | 81 | 1009.1 |
| 20260505164006 | 58 | 32 | 0.0 | 2.0 | 0.00 | 0.26 | 0.26 | 81 | 1009.1 |
| 20260505163506 | 58 | 50 | 0.0 | 2.0 | 0.00 | 0.26 | 0.26 | 81 | 1009.1 |
| 20260505163007 | 58 | 59 | 0.0 | 2.0 | 0.00 | 0.26 | 0.26 | 81 | 1009.1 |
| 20260505162506 | 58 | 66 | 0.0 | 2.0 | 0.00 | 0.26 | 0.26 | 81 | 1009.1 |
| 20260505162006 | 58 | 70 | 0.0 | 0.0 | 0.00 | 0.26 | 0.26 | 81 | 1009.1 |
| 20260505161506 | 58 | 70 | 0.0 | 0.0 | 0.00 | 0.26 | 0.26 | 81 | 1009.2 |
| 20260505161005 | 58 | 62 | 0.0 | 0.0 | 0.00 | 0.26 | 0.26 | 81 | 1009.2 |
| 20260505160505 | 58 | 31 | 0.0 | 0.0 | 0.00 | 0.26 | 0.26 | 80 | 1009.2 |
| 20260505153005 | 58 | 335 | 0.0 | 0.0 | 0.00 | 0.26 | 0.26 | 81 | 1009.5 |
| 20260505152505 | 58 | 335 | 0.0 | 0.0 | 0.00 | 0.26 | 0.26 | 81 | 1009.6 |
| 20260505152005 | 58 | 322 | 0.0 | 0.0 | 0.00 | 0.26 | 0.26 | 80 | 1009.6 |
| 20260505151505 | 58 | 276 | 0.0 | 0.0 | 0.00 | 0.26 | 0.26 | 80 | 1009.6 |
| 20260505151005 | 58 | 218 | 0.0 | 1.0 | 0.00 | 0.26 | 0.26 | 79 | 1009.7 |
| 20260505150505 | 58 | 201 | 0.0 | 0.0 | 0.00 | 0.26 | 0.26 | 79 | 1009.7 |
| 20260505140505 | 58 | 353 | 0.0 | 0.0 | 0.00 | 0.26 | 0.26 | 79 | 1009.9 |
| 20260505125007 | 57 | 65 | 1.0 | 2.0 | 0.00 | 0.26 | 0.26 | 79 | 1010.4 |
| 20260505124506 | 57 | 9 | 1.0 | 4.0 | 0.00 | 0.26 | 0.26 | 80 | 1010.4 |
| 20260505124006 | 57 | 343 | 1.0 | 3.0 | 0.00 | 0.26 | 0.26 | 80 | 1010.4 |
| 20260505123506 | 56 | 311 | 1.0 | 2.0 | 0.00 | 0.26 | 0.26 | 80 | 1010.5 |
| 20260505123006 | 56 | 319 | 0.0 | 0.0 | 0.00 | 0.26 | 0.26 | 80 | 1010.5 |
| 20260505122506 | 56 | 351 | 0.0 | 1.0 | 0.00 | 0.26 | 0.26 | 81 | 1010.5 |
| 20260505122006 | 56 | 28 | 1.0 | 3.0 | 0.00 | 0.26 | 0.26 | 81 | 1010.5 |
| 20260505121506 | 56 | 41 | 1.0 | 2.0 | 0.00 | 0.26 | 0.26 | 81 | 1010.5 |
| 20260505121006 | 56 | 74 | 2.0 | 3.0 | 0.00 | 0.26 | 0.26 | 81 | 1010.5 |
| 20260505120506 | 56 | 85 | 0.0 | 4.0 | 0.00 | 0.26 | 0.26 | 82 | 1010.5 |
| 20260505115506 | 56 | 45 | 0.0 | 4.0 | 0.00 | 0.26 | 0.26 | 83 | 1010.5 |
| 20260505115007 | 56 | 51 | 0.0 | 4.0 | 0.00 | 0.26 | 0.26 | 83 | 1010.6 |
| 20260505114506 | 55 | 62 | 0.0 | 2.0 | 0.00 | 0.26 | 0.26 | 84 | 1010.6 |
| 20260505114006 | 55 | 59 | 0.0 | 1.0 | 0.00 | 0.26 | 0.26 | 83 | 1010.6 |
| 20260505113506 | 55 | 24 | 1.0 | 2.0 | 0.00 | 0.26 | 0.26 | 83 | 1010.7 |
| 20260505113006 | 55 | 30 | 1.0 | 3.0 | 0.00 | 0.26 | 0.26 | 84 | 1010.7 |
| 20260505112506 | 55 | 27 | 2.0 | 3.0 | 0.00 | 0.26 | 0.26 | 84 | 1010.7 |
| 20260505112006 | 54 | 30 | 1.0 | 5.0 | 0.00 | 0.26 | 0.26 | 85 | 1010.8 |
| 20260505111506 | 54 | 16 | 1.0 | 2.0 | 0.00 | 0.26 | 0.26 | 85 | 1010.8 |
| 20260505111006 | 54 | 16 | 0.0 | 3.0 | 0.00 | 0.26 | 0.26 | 84 | 1010.8 |
| 20260505110506 | 54 | 24 | 0.0 | 2.0 | 0.00 | 0.26 | 0.26 | 84 | 1010.9 |
| 20260505102005 | 54 | 21 | 2.0 | 6.0 | 0.00 | 0.26 | 0.26 | 86 | 1010.9 |
| 20260505101505 | 54 | 15 | 3.0 | 7.0 | 0.00 | 0.26 | 0.26 | 87 | 1010.9 |
| 20260505101005 | 54 | 357 | 2.0 | 8.0 | 0.00 | 0.26 | 0.26 | 87 | 1010.9 |
| 20260505100506 | 54 | 20 | 0.0 | 3.0 | 0.00 | 0.26 | 0.26 | 88 | 1011.0 |
| 20260505100005 | 53 | 13 | 1.0 | 7.0 | 0.00 | 0.26 | 0.26 | 88 | 1011.1 |
| 20260505095505 | 53 | 8 | 2.0 | 6.0 | 0.00 | 0.26 | 0.26 | 87 | 1011.1 |
| 20260505095006 | 53 | 358 | 1.0 | 5.0 | 0.00 | 0.26 | 0.26 | 90 | 1011.1 |
| 20260505094505 | 53 | 355 | 1.0 | 6.0 | 0.00 | 0.26 | 0.26 | 90 | 1011.2 |
| 20260505094005 | 52 | 355 | 1.0 | 4.0 | 0.00 | 0.26 | 0.26 | 90 | 1011.2 |
| 20260505093505 | 52 | 3 | 0.0 | 5.0 | 0.00 | 0.26 | 0.26 | 91 | 1011.2 |
| 20260505093005 | 52 | 15 | 0.0 | 0.0 | 0.00 | 0.26 | 0.26 | 91 | 1011.3 |
| 20260505092505 | 52 | 11 | 0.0 | 0.0 | 0.00 | 0.26 | 0.26 | 91 | 1011.3 |
| 20260505092005 | 52 | 10 | 1.0 | 4.0 | 0.00 | 0.26 | 0.26 | 91 | 1011.3 |
| 20260505091505 | 52 | 2 | 0.0 | 2.0 | 0.00 | 0.26 | 0.26 | 91 | 1011.3 |
| 20260505091005 | 52 | 3 | 0.0 | 1.0 | 0.00 | 0.26 | 0.26 | 92 | 1011.3 |
| 20260505090505 | 52 | 5 | 1.0 | 3.0 | 0.00 | 0.26 | 0.26 | 92 | 1011.2 |
| 20260505090005 | 52 | 15 | 0.0 | 1.0 | 0.00 | 0.26 | 0.26 | 92 | 1011.2 |
| 20260505085505 | 52 | 20 | 0.0 | 0.0 | 0.00 | 0.26 | 0.26 | 92 | 1011.3 |
| 20260505085006 | 51 | 20 | 0.0 | 0.0 | 0.00 | 0.26 | 0.26 | 92 | 1011.3 |
| 20260505084505 | 51 | 20 | 0.0 | 0.0 | 0.00 | 0.26 | 0.26 | 92 | 1011.4 |
| 20260505084005 | 51 | 20 | 0.0 | 0.0 | 0.00 | 0.26 | 0.26 | 91 | 1011.5 |
| 20260505083505 | 51 | 18 | 0.0 | 0.0 | 0.00 | 0.26 | 0.26 | 92 | 1011.5 |
| 20260505083005 | 51 | 13 | 0.0 | 0.0 | 0.00 | 0.26 | 0.26 | 92 | 1011.4 |
| 20260505082505 | 51 | 357 | 0.0 | 2.0 | 0.00 | 0.26 | 0.26 | 93 | 1011.5 |
| 20260505082005 | 51 | 340 | 0.0 | 3.0 | 0.00 | 0.26 | 0.26 | 92 | 1011.5 |
| 20260505081505 | 51 | 337 | 0.0 | 3.0 | 0.00 | 0.26 | 0.26 | 93 | 1011.5 |
| 20260505081005 | 50 | 337 | 0.0 | 0.0 | 0.00 | 0.26 | 0.26 | 93 | 1011.4 |
| 20260505080505 | 50 | 342 | 0.0 | 5.0 | 0.00 | 0.26 | 0.26 | 93 | 1011.5 |
| 20260505080005 | 50 | 339 | 0.0 | 2.0 | 0.00 | 0.26 | 0.26 | 93 | 1011.5 |
| 20260505075505 | 50 | 353 | 0.0 | 1.0 | 0.00 | 0.26 | 0.26 | 94 | 1011.5 |
| 20260505075007 | 50 | 4 | 1.0 | 4.0 | 0.00 | 0.26 | 0.26 | 93 | 1011.5 |
| 20260505074505 | 50 | 15 | 0.0 | 3.0 | 0.00 | 0.26 | 0.26 | 94 | 1011.5 |
| 20260505074006 | 50 | 7 | 0.0 | 2.0 | 0.00 | 0.26 | 0.26 | 94 | 1011.4 |
| 20260505073506 | 50 | 10 | 0.0 | 0.0 | 0.00 | 0.26 | 0.26 | 94 | 1011.5 |
| 20260505073005 | 50 | 332 | 2.0 | 4.0 | 0.00 | 0.26 | 0.26 | 94 | 1011.4 |
| 20260505072506 | 50 | 341 | 0.0 | 0.0 | 0.00 | 0.26 | 0.26 | 94 | 1011.4 |
| 20260505072005 | 49 | 359 | 1.0 | 6.0 | 0.00 | 0.26 | 0.26 | 94 | 1011.4 |
| 20260505071506 | 49 | 15 | 1.0 | 4.0 | 0.00 | 0.26 | 0.26 | 94 | 1011.4 |
| 20260505071005 | 49 | 29 | 0.0 | 1.0 | 0.00 | 0.26 | 0.26 | 94 | 1011.4 |
| 20260505070506 | 49 | 13 | 3.0 | 5.0 | 0.00 | 0.26 | 0.26 | 95 | 1011.4 |
| 20260505070006 | 49 | 355 | 0.0 | 4.0 | 0.00 | 0.26 | 0.26 | 95 | 1011.4 |
| 20260505065506 | 49 | 353 | 1.0 | 7.0 | 0.00 | 0.26 | 0.26 | 95 | 1011.4 |
| 20260505065007 | 49 | 8 | 0.0 | 2.0 | 0.00 | 0.26 | 0.26 | 95 | 1011.4 |
| 20260505064506 | 49 | 356 | 1.0 | 4.0 | 0.00 | 0.26 | 0.26 | 95 | 1011.4 |
| 20260505064005 | 49 | 359 | 0.0 | 4.0 | 0.00 | 0.26 | 0.26 | 95 | 1011.4 |
| 20260505063505 | 49 | 4 | 2.0 | 6.0 | 0.00 | 0.26 | 0.26 | 95 | 1011.5 |
| 20260505063005 | 49 | 15 | 0.0 | 0.0 | 0.00 | 0.26 | 0.26 | 95 | 1011.4 |
| 20260505062505 | 49 | 16 | 0.0 | 2.0 | 0.00 | 0.26 | 0.26 | 95 | 1011.3 |
| 20260505062005 | 49 | 9 | 1.0 | 4.0 | 0.00 | 0.26 | 0.26 | 95 | 1011.3 |
| 20260505061506 | 49 | 16 | 3.0 | 6.0 | 0.00 | 0.26 | 0.26 | 95 | 1011.4 |
| 20260505061005 | 49 | 12 | 1.0 | 3.0 | 0.00 | 0.26 | 0.26 | 95 | 1011.3 |
| 20260505060506 | 49 | 20 | 0.0 | 5.0 | 0.00 | 0.26 | 0.26 | 96 | 1011.3 |
| 20260505060005 | 49 | 22 | 1.0 | 5.0 | 0.00 | 0.26 | 0.26 | 96 | 1011.3 |
| 20260505055505 | 49 | 4 | 0.0 | 2.0 | 0.00 | 0.26 | 0.26 | 96 | 1011.3 |
| 20260505055006 | 49 | 350 | 0.0 | 6.0 | 0.00 | 0.26 | 0.26 | 96 | 1011.3 |
| 20260505054505 | 49 | 334 | 1.0 | 5.0 | 0.00 | 0.26 | 0.26 | 96 | 1011.3 |
| 20260505054005 | 49 | 321 | 0.0 | 3.0 | 0.00 | 0.26 | 0.26 | 96 | 1011.3 |
| 20260505053505 | 49 | 1 | 0.0 | 3.0 | 0.00 | 0.26 | 0.26 | 96 | 1011.4 |
| 20260505053005 | 49 | 351 | 2.0 | 4.0 | 0.00 | 0.26 | 0.26 | 96 | 1011.4 |
| 20260505052505 | 49 | 9 | 0.0 | 5.0 | 0.00 | 0.26 | 0.26 | 96 | 1011.3 |
| 20260505052005 | 49 | 21 | 0.0 | 6.0 | 0.00 | 0.26 | 0.26 | 96 | 1011.3 |
| 20260505051505 | 49 | 20 | 2.0 | 6.0 | 0.00 | 0.26 | 0.26 | 96 | 1011.2 |
| 20260505051005 | 49 | 29 | 2.0 | 5.0 | 0.00 | 0.26 | 0.26 | 96 | 1011.2 |
| 20260505050505 | 49 | 29 | 0.0 | 5.0 | 0.00 | 0.26 | 0.26 | 96 | 1011.2 |
| 20260505041505 | 50 | 358 | 0.0 | 1.0 | 0.00 | 0.26 | 0.26 | 96 | 1011.2 |
| 20260505041005 | 50 | 8 | 2.0 | 3.0 | 0.00 | 0.26 | 0.26 | 96 | 1011.2 |
| 20260505040505 | 50 | 9 | 0.0 | 3.0 | 0.00 | 0.26 | 0.26 | 96 | 1011.2 |
| 20260505040005 | 50 | 9 | 0.0 | 0.0 | 0.01 | 0.26 | 0.26 | 96 | 1011.2 |
| 20260505035505 | 50 | 3 | 0.0 | 2.0 | 0.02 | 0.26 | 0.26 | 96 | 1011.3 |
| 20260505035006 | 50 | 356 | 0.0 | 4.0 | 0.02 | 0.26 | 0.26 | 96 | 1011.2 |
| 20260505034506 | 50 | 358 | 0.0 | 5.0 | 0.02 | 0.26 | 0.26 | 96 | 1011.3 |
| 20260505034005 | 49 | 340 | 3.0 | 5.0 | 0.02 | 0.26 | 0.26 | 96 | 1011.3 |
| 20260505033505 | 50 | 321 | 1.0 | 4.0 | 0.02 | 0.26 | 0.26 | 96 | 1011.3 |
| 20260505033006 | 50 | 14 | 2.0 | 5.0 | 0.02 | 0.26 | 0.26 | 96 | 1011.3 |
| 20260505032506 | 50 | 20 | 2.0 | 4.0 | 0.03 | 0.26 | 0.26 | 96 | 1011.3 |
| 20260505032006 | 50 | 28 | 1.0 | 6.0 | 0.03 | 0.26 | 0.26 | 96 | 1011.3 |
| 20260505031505 | 50 | 3 | 1.0 | 3.0 | 0.04 | 0.26 | 0.26 | 96 | 1011.4 |
| 20260505031005 | 50 | 2 | 0.0 | 1.0 | 0.06 | 0.26 | 0.26 | 96 | 1011.4 |
| 20260505030506 | 50 | 340 | 1.0 | 3.0 | 0.08 | 0.26 | 0.26 | 96 | 1011.4 |
| 20260505030005 | 50 | 354 | 0.0 | 3.0 | 0.09 | 0.25 | 0.25 | 96 | 1011.4 |
| 20260505025506 | 50 | 352 | 1.0 | 3.0 | 0.08 | 0.24 | 0.24 | 96 | 1011.4 |
| 20260505025006 | 50 | 357 | 0.0 | 3.0 | 0.09 | 0.24 | 0.24 | 96 | 1011.5 |
| 20260505024505 | 50 | 308 | 0.0 | 3.0 | 0.10 | 0.24 | 0.24 | 96 | 1011.5 |
| 20260505024005 | 49 | 359 | 1.0 | 5.0 | 0.10 | 0.24 | 0.24 | 96 | 1011.5 |
| 20260505023505 | 49 | 7 | 3.0 | 4.0 | 0.10 | 0.24 | 0.24 | 96 | 1011.5 |
| 20260505023005 | 49 | 19 | 1.0 | 5.0 | 0.10 | 0.24 | 0.24 | 95 | 1011.6 |
| 20260505022505 | 50 | 2 | 2.0 | 4.0 | 0.10 | 0.23 | 0.23 | 96 | 1011.6 |
| 20260505022005 | 50 | 353 | 1.0 | 3.0 | 0.10 | 0.23 | 0.23 | 95 | 1011.6 |
| 20260505021505 | 50 | 347 | 0.0 | 3.0 | 0.09 | 0.22 | 0.22 | 95 | 1011.6 |
| 20260505021005 | 50 | 357 | 1.0 | 2.0 | 0.07 | 0.20 | 0.20 | 95 | 1011.7 |
| 20260505020505 | 50 | 3 | 3.0 | 4.0 | 0.05 | 0.18 | 0.18 | 95 | 1011.6 |
| 20260505020005 | 50 | 15 | 2.0 | 5.0 | 0.03 | 0.16 | 0.16 | 95 | 1011.7 |
| 20260505015505 | 50 | 16 | 2.0 | 4.0 | 0.03 | 0.16 | 0.16 | 95 | 1011.7 |
| 20260505015006 | 50 | 17 | 3.0 | 5.0 | 0.03 | 0.15 | 0.15 | 95 | 1011.7 |
| 20260505014505 | 50 | 13 | 0.0 | 3.0 | 0.02 | 0.14 | 0.14 | 95 | 1011.7 |
| 20260505014005 | 50 | 2 | 1.0 | 5.0 | 0.03 | 0.14 | 0.14 | 95 | 1011.7 |
| 20260505013505 | 50 | 5 | 2.0 | 4.0 | 0.04 | 0.14 | 0.14 | 95 | 1011.7 |
| 20260505013005 | 50 | 1 | 1.0 | 4.0 | 0.05 | 0.14 | 0.14 | 95 | 1011.7 |
| 20260505012505 | 50 | 357 | 0.0 | 4.0 | 0.05 | 0.13 | 0.13 | 95 | 1011.7 |
| 20260505012006 | 50 | 3 | 1.0 | 4.0 | 0.05 | 0.13 | 0.13 | 95 | 1011.7 |
| 20260505011506 | 50 | 4 | 1.0 | 5.0 | 0.06 | 0.13 | 0.13 | 94 | 1011.7 |
| 20260505011006 | 50 | 16 | 1.0 | 2.0 | 0.06 | 0.13 | 0.13 | 94 | 1011.7 |
| 20260505010506 | 50 | 5 | 2.0 | 4.0 | 0.06 | 0.13 | 0.13 | 94 | 1011.8 |
| 20260505010006 | 50 | 2 | 1.0 | 5.0 | 0.07 | 0.13 | 0.13 | 94 | 1011.7 |
| 20260505005506 | 50 | 359 | 1.0 | 6.0 | 0.07 | 0.13 | 0.13 | 94 | 1011.8 |
| 20260505005007 | 51 | 357 | 1.0 | 5.0 | 0.06 | 0.12 | 0.12 | 93 | 1011.8 |
| 20260505004506 | 51 | 349 | 2.0 | 4.0 | 0.07 | 0.12 | 0.12 | 93 | 1011.7 |
| 20260505004006 | 51 | 337 | 3.0 | 7.0 | 0.07 | 0.11 | 0.11 | 93 | 1011.8 |
| 20260505003506 | 51 | 333 | 2.0 | 5.0 | 0.09 | 0.10 | 0.10 | 92 | 1011.9 |
| 20260505003006 | 51 | 8 | 3.0 | 5.0 | 0.09 | 0.09 | 0.09 | 92 | 1011.9 |
| 20260505002506 | 52 | 13 | 0.0 | 4.0 | 0.08 | 0.08 | 0.08 | 92 | 1012.0 |
| 20260505002005 | 52 | 16 | 1.0 | 4.0 | 0.08 | 0.08 | 0.08 | 91 | 1012.0 |
| 20260505001506 | 52 | 16 | 1.0 | 2.0 | 0.07 | 0.07 | 0.07 | 91 | 1012.1 |
| 20260505001006 | 52 | 4 | 0.0 | 2.0 | 0.07 | 0.07 | 0.07 | 91 | 1012.2 |
| 20260505000506 | 52 | 358 | 0.0 | 3.0 | 0.07 | 0.07 | 0.07 | 90 | 1012.3 |
| 20260505000006 | 52 | 351 | 1.0 | 3.0 | 0.06 | 0.06 | 0.06 | 90 | 1012.3 |
| 20260504235506 | 52 | 16 | 0.0 | 2.0 | 0.06 | 0.06 | 0.06 | 89 | 1012.4 |
| 20260504235007 | 52 | 15 | 1.0 | 2.0 | 0.06 | 0.06 | 0.06 | 89 | 1012.3 |
| 20260504234506 | 52 | 15 | 2.0 | 4.0 | 0.05 | 0.05 | 0.05 | 88 | 1012.4 |
| 20260504234006 | 52 | 357 | 1.0 | 4.0 | 0.04 | 0.04 | 0.04 | 87 | 1012.5 |
| 20260504233506 | 52 | 3 | 2.0 | 4.0 | 0.01 | 0.01 | 0.01 | 87 | 1012.5 |
| 20260504233006 | 52 | 352 | 1.0 | 3.0 | 0.00 | 0.00 | 0.00 | 87 | 1012.5 |
| 20260504232506 | 52 | 0 | 1.0 | 4.0 | 0.00 | 0.00 | 0.00 | 86 | 1012.5 |
| 20260504232006 | 52 | 15 | 0.0 | 2.0 | 0.00 | 0.00 | 0.00 | 86 | 1012.6 |
| 20260504231506 | 52 | 35 | 2.0 | 3.0 | 0.00 | 0.00 | 0.00 | 87 | 1012.5 |
| 20260504231006 | 52 | 45 | 1.0 | 4.0 | 0.00 | 0.00 | 0.00 | 86 | 1012.6 |
| 20260504230506 | 52 | 50 | 2.0 | 7.0 | 0.00 | 0.00 | 0.00 | 86 | 1012.5 |
| 20260504230006 | 52 | 73 | 4.0 | 6.0 | 0.00 | 0.00 | 0.00 | 86 | 1012.2 |
| 20260504225506 | 52 | 1 | 2.0 | 8.0 | 0.00 | 0.00 | 0.00 | 86 | 1012.2 |
| 20260504225007 | 52 | 3 | 1.0 | 6.0 | 0.00 | 0.00 | 0.00 | 87 | 1012.3 |
| 20260504224506 | 52 | 11 | 1.0 | 6.0 | 0.00 | 0.00 | 0.00 | 86 | 1012.3 |
| 20260504224006 | 52 | 8 | 3.0 | 5.0 | 0.00 | 0.00 | 0.00 | 86 | 1012.3 |
| 20260504223506 | 52 | 6 | 2.0 | 8.0 | 0.00 | 0.00 | 0.00 | 86 | 1012.4 |
| 20260504223006 | 53 | 1 | 3.0 | 7.0 | 0.00 | 0.00 | 0.00 | 86 | 1012.4 |
| 20260504222506 | 53 | 355 | 1.0 | 8.0 | 0.00 | 0.00 | 0.00 | 87 | 1012.4 |
| 20260504222006 | 53 | 355 | 5.0 | 8.0 | 0.00 | 0.00 | 0.00 | 86 | 1012.5 |
| 20260504221506 | 53 | 2 | 4.0 | 9.0 | 0.00 | 0.00 | 0.00 | 87 | 1012.6 |
| 20260504221006 | 53 | 0 | 2.0 | 8.0 | 0.00 | 0.00 | 0.00 | 87 | 1012.6 |
| 20260504220506 | 53 | 354 | 6.0 | 9.0 | 0.00 | 0.00 | 0.00 | 86 | 1012.6 |
| 20260504220006 | 53 | 356 | 2.0 | 7.0 | 0.00 | 0.00 | 0.00 | 86 | 1012.7 |
| 20260504215506 | 54 | 356 | 1.0 | 7.0 | 0.00 | 0.00 | 0.00 | 86 | 1012.7 |
| 20260504215007 | 54 | 352 | 3.0 | 6.0 | 0.00 | 0.00 | 0.00 | 86 | 1012.9 |
| 20260504214506 | 54 | 352 | 2.0 | 8.0 | 0.00 | 0.00 | 0.00 | 86 | 1012.9 |
| 20260504214005 | 54 | 352 | 1.0 | 7.0 | 0.00 | 0.00 | 0.00 | 86 | 1012.9 |
| 20260504213505 | 54 | 3 | 4.0 | 8.0 | 0.00 | 0.00 | 0.00 | 86 | 1012.9 |
| 20260504213006 | 54 | 7 | 3.0 | 5.0 | 0.00 | 0.00 | 0.00 | 86 | 1012.5 |
| 20260504212505 | 54 | 11 | 2.0 | 6.0 | 0.00 | 0.00 | 0.00 | 87 | 1012.3 |
| 20260504212005 | 55 | 2 | 4.0 | 7.0 | 0.00 | 0.00 | 0.00 | 86 | 1012.9 |
| 20260504211506 | 55 | 2 | 3.0 | 8.0 | 0.00 | 0.00 | 0.00 | 87 | 1012.9 |
| 20260504211007 | 55 | 356 | 2.0 | 4.0 | 0.00 | 0.00 | 0.00 | 87 | 1013.0 |
| 20260504210506 | 55 | 3 | 2.0 | 6.0 | 0.00 | 0.00 | 0.00 | 87 | 1013.0 |
| 20260504210006 | 55 | 356 | 1.0 | 5.0 | 0.00 | 0.00 | 0.00 | 87 | 1012.9 |
| 20260504205506 | 56 | 1 | 2.0 | 8.0 | 0.00 | 0.00 | 0.00 | 87 | 1012.9 |
| 20260504205007 | 56 | 345 | 2.0 | 5.0 | 0.00 | 0.00 | 0.00 | 86 | 1012.8 |
| 20260504204505 | 56 | 349 | 1.0 | 4.0 | 0.00 | 0.00 | 0.00 | 86 | 1012.9 |
| 20260504204006 | 56 | 348 | 2.0 | 4.0 | 0.00 | 0.00 | 0.00 | 86 | 1012.9 |
| 20260504203506 | 56 | 357 | 1.0 | 5.0 | 0.00 | 0.00 | 0.00 | 86 | 1012.9 |
| 20260504203006 | 56 | 358 | 3.0 | 6.0 | 0.00 | 0.00 | 0.00 | 86 | 1012.8 |
| 20260504202506 | 56 | 5 | 1.0 | 6.0 | 0.00 | 0.00 | 0.00 | 86 | 1012.9 |
| 20260504202006 | 56 | 353 | 6.0 | 7.0 | 0.00 | 0.00 | 0.00 | 85 | 1012.9 |
| 20260504201506 | 56 | 2 | 1.0 | 4.0 | 0.00 | 0.00 | 0.00 | 85 | 1012.9 |
| 20260504201006 | 56 | 346 | 2.0 | 5.0 | 0.00 | 0.00 | 0.00 | 85 | 1012.9 |
| 20260504200506 | 56 | 346 | 0.0 | 8.0 | 0.00 | 0.00 | 0.00 | 85 | 1012.9 |
| 20260504200006 | 56 | 348 | 0.0 | 5.0 | 0.00 | 0.00 | 0.00 | 85 | 1012.9 |
| 20260504195505 | 57 | 5 | 2.0 | 4.0 | 0.00 | 0.00 | 0.00 | 84 | 1012.9 |
| 20260504195006 | 57 | 358 | 1.0 | 5.0 | 0.00 | 0.00 | 0.00 | 84 | 1012.9 |
| 20260504194505 | 57 | 359 | 1.0 | 6.0 | 0.00 | 0.00 | 0.00 | 84 | 1013.0 |
| 20260504194005 | 57 | 347 | 2.0 | 7.0 | 0.00 | 0.00 | 0.00 | 84 | 1013.0 |
| 20260504193505 | 57 | 4 | 1.0 | 5.0 | 0.00 | 0.00 | 0.00 | 84 | 1013.0 |
| 20260504193005 | 57 | 5 | 3.0 | 7.0 | 0.00 | 0.00 | 0.00 | 84 | 1012.9 |
| 20260504192505 | 57 | 357 | 1.0 | 4.0 | 0.00 | 0.00 | 0.00 | 84 | 1012.9 |